Find Starlink 1234

NORAD ID: 45190 Int'l Des: 2020-012 Owner: SPXS Country: US Constellation: starlink operational
LEOCIRCULAR

当前视图

正在加载3D地球...

About Starlink 1234

Starlink 1234 (NORAD 45190) is a starlink constellation satellite (v1.0) launched Feb 17, 2020 by SPXS of US. It operates in LEO, CIRCULAR orbit with a mass of 260.00 kg.

关于 Starlink 1234

正在加载描述...

即将过境

Passes for default location (London). Set your location on the main map for personalized predictions.

高度历史

Loading altitude history...

两行轨道根数

1 45190U 20012N 26171.00002315 .00974648 00000-0 48200-2 0 9996
2 45190 53.0340 179.6745 0001757 93.1334 37.2223 15.79282048 5996
Epoch: Jun 20, 2026 • Age: 7 hours

当前状态

高度 335.9 km
速度 7.71 km/s
星下点 51.90°N, 95.09°W
发射日期 Feb 17, 2020
运行时间 6.3 years
类型 internet

技术详情

分类 Payload
质量 260.00 kg
干质量 248.00 kg
总质量 260.00 kg
长度 0.20 m
直径 2.80 m
跨度 9.00 m
形状 Box + pan
制造商 SPXS
平台类型 Starlink
阶段状态 In Orbit
所有者/国家 SPXS/US

Most Searched